Regional Weather Roundup
Issued by NWS Grand Forks, ND

Home | Current Version | Previous Version | Graphics & Text | Print | Product List | Glossary On
Versions: 1 2 3 4 5 6 7 8 9 10 11 12 13 14 15 16 17 18 19 20 21 22 23 24 25 26 27 28 29 30 31 32 33 34 35 36 37 38 39 40 41 42 43 44 45 46 47 48 49 50
000
ASUS43 KFGF 261210
RWRFGF
PRAIRIE TO PINES  WEATHER ROUNDUP
NATIONAL WEATHER SERVICE EASTERN NORTH DAKOTA/GRAND FORKS ND
700 AM CDT WED JUL 26 2017

 **SATELLITE DATA USED TO AUGMENT SKY COVER AT AUTOMATED STATIONS**
 *****  WEATHER ACROSS EASTERN NORTH DAKOTA  *****

CITY           SKY/WX    TMP DP  RH WIND       PRES   REMARKS
GRAND FORKS    FAIR      63  60  90 NW7       30.00R
6HR MIN TEMP:  60; 6HR MAX TEMP:  64;

GRAND FRKS AFB FAIR      63  58  84 NW9       30.01S
DEVILS LAKE    FAIR      62  59  90 NW8       30.07S
6HR MIN TEMP:  59; 6HR MAX TEMP:  70;

FARGO          FAIR      62  58  86 W6        30.01R
WAHPETON ARPT  FAIR      63  59  88 CALM      30.02R
$$

 ***** WEATHER ACROSS CENTRAL AND WESTERN NORTH DAKOTA  *****

CITY           SKY/WX    TMP DP  RH WIND       PRES   REMARKS
BISMARCK       FAIR      62  56  80 CALM      30.09R
6HR MIN TEMP:  57; 6HR MAX TEMP:  68;

MINOT          FAIR      60  54  80 W5        30.11S
6HR MIN TEMP:  58; 6HR MAX TEMP:  65;

JAMESTOWN      FAIR      61  57  87 NW5       30.05R
6HR MIN TEMP:  58; 6HR MAX TEMP:  65;

MINOT AFB      FAIR      53  52  94 W3        30.10R
GARRISON         N/A     55  53  93 N8        30.11S
WILLISTON      FAIR      56  49  77 CALM      30.14R
6HR MIN TEMP:  55; 6HR MAX TEMP:  64;

DICKINSON      FAIR      55  50  83 SE5       30.12R
6HR MIN TEMP:  55; 6HR MAX TEMP:  68;

HETTINGER      CLOUDY    61  56  83 CALM      30.14R
6HR MIN TEMP:  57; 6HR MAX TEMP:  69;

$$

 *****  OTHER AIRPORT OBSERVATIONS IN OUR AREA  *****

CITY           SKY/WX    TMP DP  RH WIND       PRES   REMARKS
WALHALLA       NOT AVBL
GRAFTON AIRPOR FAIR      63  59  88 NW12      30.02S
VALLEY CITY AR FAIR      59  59 100 W6        30.06R
CANDO          NOT AVBL
CAVALIER APRT  FAIR      61  59  94 NW8       30.00F
GWINNER        SUNNY     59  59 100 CALM      30.03R
SHEYENNE NWR     N/A     59  58  97 SW2       29.95S
ROLLA            N/A     59  59 100 NW8       30.09R
 ***** THE ABOVE OBSERVATIONS ARE NON NWS ARE NOT QUALITY
       CONTROLLED AND MAY MIS-REPORT RAIN FOR SNOW...
$$

  *****  WEATHER ACROSS NORTHERN MINNESOTA  *****

CITY           SKY/WX    TMP DP  RH WIND       PRES   REMARKS
FLAG ISLAND    FAIR      63  59  88 W12       29.94S
WARROAD        FAIR      59  55  88 W7        29.98R
ROSEAU         FAIR      61  55  82 W6        29.98S
HALLOCK        FAIR      61  57  88 NW6       29.99S
THF RVR FALLS  FAIR      61  57  87 NW8       30.01R
6HR MIN TEMP:  58; 6HR MAX TEMP:  61;

BAUDETTE       FAIR      60  57  89 W6        29.95S
6HR MIN TEMP:  56; 6HR MAX TEMP:  62;

WASKISH        FAIR      64  59  82 NW9       29.97R
CROOKSTON      FAIR      59  57  94 NW6       30.01R
STEPHEN NDAWN    N/A     61  57  88 NW5         N/A
GREENBUSH NDAW   N/A     59  57  94 W5          N/A
$$
  *****  WEATHER ACROSS CENTRAL AND WEST MINNESOTA  *****

CITY           SKY/WX    TMP DP  RH WIND       PRES   REMARKS
FOSSTON        FAIR      59  55  88 CALM      30.01S
BEMIDJI        FAIR      60  56  87 NW3       30.00S
PARK RAPIDS    FAIR      60  56  86 NW3       30.01S
6HR MIN TEMP:  59; 6HR MAX TEMP:  68;

ELBOW LAKE     FAIR      65  62  87 CALM      30.02R
6HR MIN TEMP:  65; 6HR MAX TEMP:  71;

WADENA         FAIR      61  61 100 N3        30.00S
DETROIT LAKES  FAIR      63  59  88 CALM      30.03S
MOORHEAD       FAIR      61  57  88 CALM      30.03R
FERGUS FALLS   FAIR      66  57  72 CALM      30.00R
MORRIS MN      FAIR      70  68  94 CALM      30.01R
STAPLES        FAIR      63  61  94 CALM      30.01S
$$
  *****  WEATHER ELSEWHERE ACROSS MINNESOTA  *****

CITY           SKY/WX    TMP DP  RH WIND       PRES   REMARKS
DULUTH         FAIR      64  63  96 W5        29.99R
6HR MIN TEMP:  64; 6HR MAX TEMP:  71;

INTRNTL FALLS  FAIR      61  57  87 NW6       29.94S
6HR MIN TEMP:  55; 6HR MAX TEMP:  64;

ELY            FAIR      63  57  82 NW5       29.94S
CLOQUET        FAIR      66  63  88 CALM      29.99S
WHEATON        FAIR      66  63  88 CALM      30.04R
BRAINERD       FAIR      66  62  87 CALM      30.00R
6HR MIN TEMP:  65; 6HR MAX TEMP:  72;

HIBBING        FAIR      60  59  96 SW3       29.98R
6HR MIN TEMP:  56; 6HR MAX TEMP:  67;

ALEXANDRIA     FAIR      68  59  73 CALM      30.03R
6HR MIN TEMP:  67; 6HR MAX TEMP:  71;

SAINT CLOUD    CLOUDY    69  68  96 N3        29.99R
6HR MIN TEMP:  69; 6HR MAX TEMP:  71; 6HR PCP:  0.05;

MINNEAPOLIS    CLOUDY    73  69  87 CALM      29.97R
6HR MIN TEMP:  72; 6HR MAX TEMP:  78; 6HR PCP:  0.43;

$$

  *****  WEATHER ACROSS SOUTH DAKOTA  *****

CITY           SKY/WX    TMP DP  RH WIND       PRES   REMARKS
SIOUX FALLS    CLOUDY    71  70  96 CALM      30.01R
6HR MIN TEMP:  71; 6HR MAX TEMP:  73; 6HR PCP:  0.04;

BROOKINGS      CLOUDY    69  68  96 CALM      30.03R
WATERTOWN      FAIR      69  63  81 NE6       30.02R
6HR MIN TEMP:  69; 6HR MAX TEMP:  72; 6HR PCP: TRACE;

HURON          FAIR      71  69  93 E5        29.99R
6HR MIN TEMP:  68; 6HR MAX TEMP:  71;

SISSETON         N/A     67  64  90 CALM      30.02R
ABERDEEN       FAIR      68  63  84 NE6       30.03R
6HR MIN TEMP:  68; 6HR MAX TEMP:  72; 6HR PCP: TRACE;

MITCHELL       FAIR      69  68  96 CALM      29.99R
PIERRE         FAIR      71  67  87 N13       30.01R
6HR MIN TEMP:  71; 6HR MAX TEMP:  75;

MOBRIDGE       FAIR      64  61  90 NW6       30.04R
RAPID CITY     MOCLDY    70  50  49 N6        30.13R
6HR MIN TEMP:  68; 6HR MAX TEMP:  71; 6HR PCP: TRACE;

$$

  *****  SOME WEATHER IN NEARBY STATES *****

CITY           SKY/WX    TMP DP  RH WIND       PRES   REMARKS
GLASGOW MT     FAIR      58  46  64 E3        30.12R
6HR MIN TEMP:  56; 6HR MAX TEMP:  67;

GREAT FALLS MT FAIR      52  39  61 SW6       30.14R
6HR MIN TEMP:  52; 6HR MAX TEMP:  69;

CHEYENNE WY    CLOUDY    60  58  92 N8        30.27R
6HR MIN TEMP:  60; 6HR MAX TEMP:  63; 6HR PCP:  0.01;

SCOTTSBLUFF NE CLOUDY    70  57  63 NW7       30.15R
6HR MIN TEMP:  70; 6HR MAX TEMP:  76;

OMAHA NE       LGT RAIN  75  70  84 SE5       29.98F
6HR MIN TEMP:  75; 6HR MAX TEMP:  83; 6HR PCP:  0.20;

DES MOINES IA  CLOUDY    75  69  81 S7        29.99R
6HR MIN TEMP:  75; 6HR MAX TEMP:  79;

DAVENPORT IA   FAIR      72  67  84 S12       30.06S
6HR MIN TEMP:  70; 6HR MAX TEMP:  73;

CHICAGO IL     PTSUNNY   68  60  75 S7        30.09S
6HR MIN TEMP:  65; 6HR MAX TEMP:  70;

EAU CLAIRE WI  RAIN      70  69  97 S5        30.00F FOG
6HR MIN TEMP:  70; 6HR MAX TEMP:  73; 6HR PCP:  0.95;

LA CROSSE WI   FAIR      75  69  81 VRB6      30.00R
6HR MIN TEMP:  75; 6HR MAX TEMP:  77;

$$

  *****  SOME NATIONAL WEATHER *****

CITY           SKY/WX    TMP DP  RH WIND       PRES   REMARKS
LA GUARDIA NY  FAIR      67  58  72 NE6       30.24R
6HR MIN TEMP:  65; 6HR MAX TEMP:  68;

RALEIGH NC     FAIR      74  64  71 E8        30.18S
6HR MIN TEMP:  72; 6HR MAX TEMP:  78;

ATLANTA GA     FAIR      76  72  87 NW5       30.13R
6HR MIN TEMP:  74; 6HR MAX TEMP:  76;

NEW ORLEANS LA MOCLDY    79  77  94 W5        30.13S
6HR MIN TEMP:  78; 6HR MAX TEMP:  81;

OKLAHOMA CITY  FAIR      74  69  85 S7        30.03R
6HR MIN TEMP:  73; 6HR MAX TEMP:  80;

ALBUQUERQUE NM FAIR      68  56  65 SE5       30.25R
6HR MIN TEMP:  68; 6HR MAX TEMP:  78;

SALT LAKE CITY LGT RAIN  67  64  90 SE6       30.18S
6HR MIN TEMP:  66; 6HR MAX TEMP:  77; 6HR PCP:  0.37;

LOS ANGELES CA MOCLDY    67  63  87 W8        30.00S
6HR MIN TEMP:  67; 6HR M



USA.gov is the U.S. government's official web portal to all federal, state and local government web resources and services.